Wind_Speed
10 9 9 9 11 12 11 10 9 10 10 10 11 12 12 12 13 13 14 13 10 10 10 10 10 9 10 11 9 9 9 9 9 8 7 7 7 5 3 3 4 6 10 15 21 25 27 28 28 28 29 29 28 27 26 27 27 28 29 29 29 26
10 9 8 10 12 12 11 10 10 10 10 12 12 13 14 13 14 15 16 14 11 10 10 10 11 10 10 11 10 10 9 9 9 8 7 7 7 6 4 2 3 5 9 14 19 24 27 28 29 29 29 29 28 27 26 25 26 27 28 30 30 27
11 10 10 11 12 12 10 10 10 10 11 13 14 14 15 14 16 17 15 15 11 8 9 9 8 8 9 11 10 11 10 9 8 6 7 7 7 6 5 4 3 4 7 12 17 21 25 28 29 29 29 29 28 27 26 24 25 25 27 30 30 28
11 11 11 10 11 11 10 11 10 10 11 12 14 14 14 16 18 17 13 14 11 5 6 7 6 6 8 10 11 11 11 9 7 6 7 7 7 6 5 4 3 3 5 9 14 18 22 24 27 30 30 29 29 28 26 24 25 25 26 29 29 29
9 9 9 8 9 11 10 11 10 10 11 12 14 13 14 17 19 17 11 11 11 5 4 6 7 7 7 9 10 10 10 9 8 8 7 7 7 7 6 5 3 2 2 5 9 14 19 21 25 29 30 31 30 30 28 25 24 24 27 29 28 28
9 8 8 8 9 10 11 11 10 11 12 12 14 14 15 18 17 14 10 10 11 7 4 6 7 8 8 8 9 10 10 10 10 9 8 8 7 7 7 5 3 1 1 3 6 11 16 20 23 24 27 31 31 30 29 27 24 23 26 27 27 28
12 10 9 9 9 11 13 13 12 13 13 13 14 15 15 17 16 12 10 10 11 8 7 9 8 8 9 10 11 11 11 11 11 10 10 9 8 8 8 6 4 3 2 3 6 11 14 18 21 20 24 30 31 31 31 29 25 23 25 26 26 27
12 13 13 12 9 11 15 14 14 14 12 12 13 15 16 17 15 11 11 12 13 11 10 11 9 9 10 13 15 14 13 12 11 11 11 9 9 10 9 7 6 5 4 4 6 10 13 18 20 20 23 27 31 32 31 30 27 24 24 25 26 26
11 13 16 17 12 11 14 13 14 14 12 13 14 16 19 17 12 11 13 14 14 13 11 11 10 10 11 13 16 13 11 11 11 12 10 10 11 10 10 10 9 7 6 5 5 7 12 16 19 21 22 24 28 31 31 31 28 24 22 23 24 26
11 13 16 18 16 14 14 13 12 13 12 13 13 14 17 15 10 11 14 14 14 14 13 12 10 12 13 13 15 12 10 12 12 11 10 10 12 10 10 10 9 8 7 5 5 6 10 14 18 21 22 22 25 29 31 31 29 25 23 23 24 25
10 12 13 14 15 14 15 13 11 13 13 12 12 13 15 13 11 13 15 16 16 15 13 13 11 12 14 13 14 15 12 13 13 11 9 9 10 10 10 10 10 9 8 7 5 5 7 11 16 19 21 21 23 28 30 30 29 28 25 24 23 25
8 9 11 12 13 13 13 13 12 12 13 11 11 13 14 12 11 13 15 16 17 15 13 14 13 13 13 13 15 17 14 14 14 11 10 9 8 8 9 10 11 10 9 9 8 7 6 7 12 16 20 21 22 26 30 29 29 29 27 25 23 24
6 7 9 11 12 12 13 13 13 13 14 13 12 12 13 13 12 12 14 15 17 17 16 16 15 14 14 14 16 18 16 15 14 12 11 11 10 10 9 10 11 11 11 11 11 10 9 8 8 12 17 19 20 24 29 30 29 30 29 27 25 24
7 7 9 11 12 13 13 14 14 14 14 14 14 13 13 14 12 12 13 14 16 18 19 18 17 15 15 15 17 18 18 17 15 14 13 13 13 12 11 10 10 11 11 11 11 10 11 11 10 9 13 16 18 21 26 30 30 30 30 30 28 25
8 8 8 9 11 13 14 15 15 15 15 15 14 13 13 14 13 13 12 12 14 16 18 19 18 17 15 16 17 18 20 19 17 17 16 15 14 13 13 12 11 12 12 12 12 10 9 10 11 9 11 14 16 18 21 27 30 31 31 31 31 29
8 9 9 9 10 12 13 14 15 15 15 15 15 14 14 15 14 14 13 13 13 14 15 16 17 18 18 16 16 18 20 20 19 19 17 14 15 15 13 13 13 13 12 12 12 12 10 9 10 10 11 13 16 18 19 22 27 30 32 31 31 31
9 10 10 10 10 11 12 13 13 14 15 16 17 17 16 16 16 16 15 14 13 14 14 14 15 16 18 18 17 19 20 19 19 19 18 15 15 15 13 13 14 13 12 12 13 14 13 12 12 12 13 15 16 18 18 19 23 27 31 31 29 29
9 10 10 10 10 10 11 12 13 13 13 15 16 16 16 16 16 15 14 14 14 14 13 13 14 14 16 17 19 21 21 21 20 19 18 15 15 15 14 15 15 14 14 13 14 14 15 15 14 14 14 15 16 18 19 18 20 23 27 32 32 30
9 9 10 10 10 10 10 11 11 12 12 13 13 13 14 15 14 14 14 14 15 15 14 14 13 14 14 15 17 19 21 22 21 20 17 15 16 16 16 17 16 15 15 14 15 15 16 16 15 15 14 13 15 18 20 19 19 20 21 27 33 34
10 9 10 10 10 10 10 10 9 9 10 10 11 10 11 12 12 12 13 15 15 16 15 13 13 14 14 14 16 17 19 19 20 20 18 16 18 18 18 18 17 16 15 15 16 17 17 17 17 17 15 14 13 14 17 17 19 19 19 21 26 31
10 9 9 10 11 11 11 10 8 8 8 8 8 8 9 10 10 10 12 13 13 14 13 12 12 13 14 14 15 16 17 18 19 20 19 17 18 19 18 19 19 18 17 16 17 18 18 18 18 16 15 14 12 12 14 15 18 21 20 19 20 24
10 9 8 8 9 11 12 10 7 6 7 7 7 7 7 8 8 8 9 10 11 12 12 11 11 11 13 13 13 14 15 16 17 18 18 17 16 16 17 18 20 20 19 18 16 16 17 17 16 16 15 13 11 11 12 12 15 21 22 19 17 19
9 9 7 7 8 9 12 10 7 6 6 6 6 6 6 7 7 6 6 7 7 8 9 9 10 10 12 13 13 13 14 15 15 15 17 16 13 13 14 15 18 19 19 16 14 14 14 15 15 16 15 13 11 12 12 11 11 13 21 22 20 18
10 9 8 8 8 8 11 11 7 5 5 5 6 6 6 6 5 4 4 3 4 5 5 6 7 8 9 11 12 12 13 14 14 14 15 14 12 11 10 11 13 15 16 15 14 14 13 13 14 14 14 13 13 12 12 12 10 9 14 23 23 20
10 9 9 9 9 8 10 11 7 4 5 5 5 5 4 3 2 2 1 2 2 2 2 3 4 5 6 7 9 11 12 13 14 14 13 12 11 10 9 9 10 11 13 14 14 15 14 13 13 13 13 13 13 13 12 13 11 8 8 17 25 24
11 10 10 10 10 9 10 11 7 3 4 4 4 4 3 2 1 1 1 1 1 1 1 2 2 2 3 4 5 7 9 10 11 12 12 11 10 10 9 8 9 10 11 11 11 12 13 13 13 14 13 13 13 13 12 11 11 9 8 8 18 25
12 11 11 11 11 9 9 11 7 3 3 3 3 3 2 2 2 2 2 2 2 2 2 2 2 2 2 3 3 4 5 6 8 8 8 9 8 8 8 8 9 10 11 10 10 10 11 10 11 12 11 12 13 12 11 12 12 10 8 7 8 16
13 12 12 12 12 10 9 10 7 4 3 3 2 2 2 3 3 3 4 4 4 4 4 4 4 4 4 4 4 4 4 4 4 5 5 5 5 5 6 6 7 8 9 10 10 11 11 11 11 11 10 11 13 13 12 13 13 12 11 9 6 7
15 14 13 13 12 11 9 10 8 5 4 3 2 1 2 3 3 4 4 3 3 3 3 4 4 5 5 5 5 5 5 4 4 3 3 3 3 3 3 4 5 6 6 7 9 10 10 11 12 12 12 13 14 14 14 14 14 14 13 12 10 7
17 15 14 14 14 11 9 10 9 7 5 4 3 2 1 2 2 2 2 2 1 1 1 1 2 3 4 5 5 6 6 5 5 4 4 3 3 3 3 2 3 3 4 4 5 7 7 8 10 11 12 14 15 15 15 15 16 15 14 13 14 13
19 17 16 16 15 12 10 10 9 8 7 6 5 4 3 2 2 2 2 1 1 2 2 2 1 1 1 2 4 4 5 5 6 6 5 5 4 4 4 3 3 3 3 3 3 4 5 5 6 7 8 9 11 11 12 14 15 14 14 14 15 16
21 18 18 18 16 13 11 11 10 10 9 7 6 6 5 3 3 3 3 2 2 3 3 3 3 2 2 1 1 2 3 4 4 5 5 5 5 5 5 5 4 4 4 4 4 4 5 5 5 5 6 6 7 7 8 9 10 10 11 12 13 15
22 20 20 19 16 14 12 12 12 12 11 9 8 7 6 5 4 4 4 3 3 3 3 4 5 4 4 3 2 1 1 2 2 3 3 4 4 5 5 5 5 5 5 5 6 6 6 7 7 6 7 7 6 7 7 7 8 8 8 8 9 10
24 22 21 19 16 14 14 14 13 13 12 11 10 9 8 6 5 5 4 3 3 2 2 3 4 5 5 5 4 3 2 1 1 0 1 2 2 3 4 4 4 4 5 5 6 7 7 7 8 8 9 9 9 9 9 9 9 9 9 9 9 9
27 24 22 20 17 15 15 15 15 14 14 13 12 11 10 8 7 6 6 5 5 4 2 2 2 3 4 4 4 5 4 4 3 3 2 2 1 1 1 2 3 3 3 4 5 5 6 6 7 8 8 9 9 9 10 10 11 11 11 11 11 11
30 27 24 22 18 17 17 17 17 16 15 14 13 12 12 11 9 8 8 7 7 7 6 5 4 3 2 2 3 4 5 5 5 5 5 5 4 4 3 3 3 3 3 3 3 3 4 5 5 6 6 7 8 8 8 9 9 10 11 11 11 12
33 30 27 24 21 19 19 18 18 17 16 15 14 13 13 13 12 11 11 10 9 9 9 9 8 7 6 5 4 4 5 6 6 6 7 6 6 6 6 5 5 5 5 5 5 4 4 4 4 5 5 5 6 7 7 7 8 8 8 9 9 9
Wind_Direction
223 222 217 220 226 226 226 228 232 240 244 245 248 251 249 246 248 249 251 251 246 246 250 254 254 255 264 269 268 262 259 264 264 265 277 290 300 303 291 257 232 216 211 213 214 213 210 209 209 210 210 209 209 210 212 213 215 219 220 222 224 224
229 225 222 222 228 231 229 230 236 243 249 251 248 249 252 251 253 254 255 256 252 252 252 253 255 257 264 267 270 269 263 261 261 265 273 280 286 291 289 261 240 228 217 214 216 217 214 212 210 210 212 211 209 210 212 215 218 220 223 225 224 224
236 232 223 225 235 239 233 232 240 245 246 252 254 254 259 258 256 254 255 259 255 247 255 261 259 260 265 262 262 266 265 261 264 266 266 268 271 279 286 283 267 248 227 215 215 217 217 216 214 212 212 212 211 209 211 215 219 221 225 227 225 225
234 237 230 226 237 245 243 242 247 249 247 254 261 260 261 258 255 254 252 260 260 238 256 259 245 245 253 254 255 260 263 262 269 265 256 255 259 265 280 299 299 271 237 217 214 214 217 219 219 216 213 213 212 209 210 214 219 221 226 228 225 226
243 246 251 245 247 253 253 252 249 248 250 257 261 259 258 258 257 260 259 263 272 279 258 239 235 247 248 250 254 259 259 257 262 260 255 251 252 259 274 295 307 300 244 223 216 209 211 218 222 221 216 215 213 211 210 212 218 221 226 229 226 226
258 246 253 262 266 270 269 267 260 250 248 251 252 251 254 257 257 265 273 268 270 273 246 234 243 257 258 255 255 256 253 249 250 251 252 250 247 255 265 271 276 279 226 225 218 207 209 216 224 226 222 219 216 213 211 211 215 220 226 230 227 226
268 262 251 247 251 267 271 269 266 255 245 246 246 246 252 255 256 262 263 258 263 266 255 247 238 238 244 244 246 247 246 243 245 248 244 239 239 246 251 249 248 255 245 230 220 215 213 218 226 229 226 222 218 215 213 211 214 219 225 229 229 228
270 278 273 256 238 255 269 270 271 263 252 256 254 251 253 252 253 257 255 254 259 261 258 254 247 241 235 231 233 233 236 238 237 245 242 233 234 234 240 239 236 242 247 247 235 226 220 219 224 228 229 225 220 218 215 213 214 218 224 228 230 231
261 272 278 277 269 260 262 264 265 263 257 257 253 248 249 246 247 256 258 257 259 264 263 258 257 256 248 241 241 232 232 239 231 235 238 241 245 239 240 239 235 237 241 255 250 235 226 220 219 224 230 227 221 219 218 215 215 218 222 228 230 233
259 265 274 283 287 280 273 270 266 266 262 258 257 253 252 254 262 267 266 265 263 263 259 254 249 251 252 248 253 252 248 252 244 236 231 236 243 240 241 240 239 241 241 250 249 239 232 224 220 223 227 226 220 220 220 217 216 218 221 227 231 233
265 268 271 277 282 284 287 289 283 277 275 274 275 272 268 270 273 269 270 271 264 255 251 256 252 249 253 253 258 258 252 256 257 253 247 240 235 232 236 236 236 239 241 244 233 224 230 227 224 225 228 226 220 219 221 219 218 219 220 225 230 233
278 276 274 273 273 275 279 282 280 279 282 283 279 276 278 275 265 260 261 264 263 261 260 264 260 253 255 257 260 257 252 257 261 260 257 251 240 234 236 235 235 236 238 244 237 220 217 225 227 225 228 230 225 220 220 221 221 221 222 224 229 233
302 293 280 275 273 270 267 268 269 270 274 276 275 277 278 272 263 257 254 255 260 263 264 265 265 262 257 252 252 256 257 259 262 259 251 249 244 238 239 237 237 239 239 244 249 242 230 225 228 229 228 231 232 226 220 221 223 224 225 225 229 233
320 311 292 279 272 268 266 267 267 268 272 275 275 277 278 279 279 273 265 260 259 259 261 264 264 262 259 253 249 254 258 256 255 252 244 243 243 240 245 246 242 244 244 246 253 258 249 235 229 231 228 226 232 232 222 220 224 226 228 228 229 234
328 326 312 294 279 273 270 269 269 270 273 275 275 275 276 282 288 288 285 278 271 265 260 259 259 257 255 251 248 252 258 260 259 256 247 242 244 242 244 249 249 248 246 246 248 253 254 238 229 232 232 222 224 230 226 223 224 225 227 229 231 234
331 332 327 314 298 285 279 274 273 271 270 271 271 271 271 274 278 280 283 283 282 278 267 258 256 256 255 254 254 256 261 264 263 261 258 252 251 249 245 246 249 251 247 243 243 245 247 239 233 236 234 222 216 221 226 227 227 227 226 227 230 233
328 334 334 328 316 299 290 284 281 276 272 271 271 271 269 269 269 271 275 277 277 277 274 267 260 255 255 256 258 260 265 268 265 264 267 266 262 260 259 253 248 249 249 243 240 242 245 244 240 237 230 223 217 215 219 227 232 233 230 226 226 231
323 331 333 331 321 306 297 289 285 280 275 273 273 273 271 269 268 268 269 269 269 270 271 270 267 261 257 257 258 262 265 268 268 266 266 266 265 266 265 263 256 251 250 247 243 241 243 242 239 234 230 227 222 215 213 219 229 234 233 230 226 226
315 323 329 330 324 314 307 300 292 284 278 276 276 277 275 272 270 266 264 265 267 269 270 270 270 268 265 262 260 262 263 266 268 266 262 259 263 268 269 271 267 259 257 256 252 246 243 240 235 232 231 231 230 226 217 211 218 225 228 230 230 228
307 316 324 330 331 327 323 318 306 294 288 286 284 283 281 278 274 267 264 266 269 271 272 270 268 268 267 265 263 262 263 264 267 269 269 267 268 271 273 275 272 266 263 260 257 254 249 241 234 232 234 236 238 244 239 222 215 219 221 224 229 232
302 312 320 329 335 335 336 330 317 309 304 297 293 292 289 284 279 272 267 268 270 272 271 268 266 267 268 267 265 264 263 263 264 268 271 271 268 268 270 272 271 268 266 263 257 255 256 250 241 238 242 244 244 255 263 249 227 221 222 220 223 232
296 305 312 323 332 338 342 333 319 318 312 303 300 296 289 285 283 278 272 270 270 270 271 269 265 262 264 265 264 264 263 263 263 264 266 268 268 266 266 268 267 265 265 261 256 256 260 259 251 247 250 251 251 257 263 262 244 228 223 220 220 226
287 294 300 309 320 332 341 334 319 320 316 307 303 296 289 287 287 282 274 270 267 267 269 268 265 259 258 259 260 259 259 260 261 261 264 267 269 266 264 265 267 268 264 256 255 259 259 260 257 256 260 259 258 263 259 264 274 247 225 220 219 218
277 283 288 295 304 320 336 334 319 321 323 312 308 299 288 285 283 281 277 269 263 264 266 267 267 264 260 257 255 253 254 255 257 258 261 265 268 266 261 259 264 267 264 258 257 260 261 263 261 258 262 263 260 262 261 263 280 283 240 226 221 215
269 274 279 285 293 305 329 332 316 323 337 320 311 299 287 290 290 286 267 244 243 242 250 258 262 266 264 258 255 253 252 251 253 255 258 262 264 264 258 253 257 260 264 267 263 262 265 266 263 262 261 262 263 260 262 266 270 296 287 241 227 221
261 268 271 276 285 294 319 327 315 324 344 326 315 305 305 321 313 288 262 241 248 242 252 260 259 271 271 264 259 256 253 251 253 256 258 259 259 258 255 251 252 254 260 266 262 261 266 264 264 268 266 265 267 260 260 271 277 290 314 279 238 228
254 261 266 272 280 285 309 321 310 316 341 332 328 319 310 306 286 278 272 269 281 285 287 287 283 286 288 287 280 270 265 258 255 257 256 258 256 254 256 254 249 249 253 258 256 255 258 260 262 266 269 267 264 259 258 270 279 279 288 304 273 243
248 256 262 269 275 279 299 312 303 298 317 320 339 340 303 285 275 272 276 281 288 289 286 282 278 277 277 281 282 280 279 273 267 264 260 256 256 253 253 254 252 250 253 253 252 251 250 252 254 256 259 259 257 257 261 268 272 270 267 270 285 277
244 251 256 262 268 272 286 300 294 285 294 292 301 342 313 285 279 279 285 289 291 290 283 277 271 267 267 266 269 272 272 275 276 273 271 266 264 264 256 251 249 249 252 252 251 250 252 252 251 252 254 254 256 256 257 262 261 261 263 261 264 279
241 247 251 255 260 264 274 287 284 275 279 275 266 283 307 303 305 300 300 313 325 321 280 265 255 252 258 258 260 263 263 268 273 272 273 271 267 273 271 262 255 251 249 248 249 248 249 251 250 252 254 255 257 256 255 256 255 256 257 257 259 261
235 241 245 249 254 257 264 273 273 269 270 268 259 256 265 302 330 336 336 0 39 63 87 95 107 171 220 244 250 254 258 260 264 267 266 264 266 270 273 271 263 262 260 251 252 252 248 248 247 248 251 251 254 255 255 256 258 260 256 251 250 250
229 235 241 245 249 253 256 261 262 264 267 264 257 254 258 278 313 339 352 5 36 60 72 80 84 95 112 146 203 229 243 250 255 262 264 264 266 268 272 275 271 267 267 265 263 264 263 258 253 250 249 251 253 253 252 256 260 264 262 256 251 249
225 229 238 241 243 247 250 251 254 259 263 262 256 255 258 265 283 312 339 358 18 47 59 70 77 79 83 89 98 127 179 217 235 243 251 255 255 259 261 263 266 265 262 264 265 265 267 266 264 263 259 258 260 261 260 260 261 261 262 261 257 254
222 224 234 238 238 241 243 245 247 253 259 261 259 257 256 258 266 282 302 326 345 12 40 60 74 77 75 74 72 72 70 70 66 264 242 240 236 241 250 251 253 256 255 258 261 261 264 265 266 268 267 265 263 264 265 265 266 266 266 265 262 258
219 221 229 233 232 234 237 241 243 247 255 260 262 261 259 258 259 265 272 281 295 311 328 355 36 67 74 66 58 54 46 40 34 21 14 6 346 308 281 275 265 260 259 260 261 265 267 268 269 270 271 272 269 266 266 265 266 268 268 268 268 266
218 219 225 229 226 228 233 238 241 244 251 257 263 266 264 263 259 258 261 264 272 281 289 299 308 321 350 24 31 31 28 25 22 18 12 7 3 359 351 343 331 316 307 295 283 279 279 277 278 275 274 275 274 272 269 266 266 266 267 267 266 267
216 217 221 223 222 225 232 237 240 243 248 253 259 265 267 267 263 261 259 261 265 269 276 282 285 293 303 310 326 340 352 359 2 5 4 2 2 1 357 352 344 334 327 323 317 308 303 301 298 294 288 284 281 282 279 277 274 270 270 270 269 269
Height
3139 3141 3143 3143 3142 3142 3143 3143 3144 3144 3144 3144 3144 3144 3144 3144 3144 3145 3144 3145 3147 3147 3148 3149 3149 3150 3150 3150 3150 3151 3151 3151 3151 3152 3152 3152 3152 3152 3153 3153 3153 3153 3154 3155 3156 3156 3158 3159 3160 3162 3163 3164 3166 3168 3169 3171 3171 3172 3173 3173 3174 3177
3139 3141 3142 3142 3142 3142 3142 3143 3144 3144 3144 3144 3143 3144 3143 3143 3143 3143 3143 3144 3146 3146 3147 3149 3149 3149 3149 3149 3149 3149 3150 3150 3151 3151 3151 3151 3151 3151 3151 3152 3152 3152 3153 3153 3154 3155 3156 3157 3159 3160 3162 3163 3165 3166 3168 3169 3170 3171 3172 3172 3173 3175
3139 3140 3141 3142 3141 3141 3142 3143 3144 3144 3144 3143 3143 3143 3143 3142 3142 3141 3141 3142 3145 3146 3147 3148 3148 3148 3148 3149 3148 3148 3149 3149 3150 3151 3151 3150 3150 3150 3150 3151 3151 3151 3151 3151 3152 3153 3155 3156 3157 3159 3160 3162 3164 3165 3166 3168 3169 3170 3170 3170 3172 3174
3139 3139 3140 3140 3140 3140 3141 3142 3143 3143 3143 3142 3142 3143 3142 3141 3140 3138 3139 3140 3143 3147 3148 3147 3148 3148 3148 3148 3148 3147 3147 3148 3149 3150 3150 3149 3149 3149 3149 3149 3150 3150 3150 3150 3150 3152 3153 3155 3156 3157 3159 3160 3162 3163 3165 3167 3168 3169 3169 3169 3172 3173
3137 3137 3137 3137 3137 3138 3140 3140 3142 3143 3142 3143 3142 3143 3142 3140 3139 3138 3140 3141 3142 3146 3148 3147 3148 3149 3149 3148 3147 3147 3146 3147 3148 3148 3149 3148 3148 3149 3148 3149 3149 3149 3149 3149 3150 3151 3152 3154 3154 3155 3157 3159 3160 3162 3163 3165 3166 3168 3168 3168 3171 3172
3134 3136 3136 3135 3135 3135 3137 3138 3141 3142 3142 3142 3142 3142 3142 3140 3139 3141 3143 3143 3142 3145 3147 3146 3147 3148 3148 3147 3146 3146 3145 3146 3147 3147 3148 3148 3148 3148 3148 3148 3149 3149 3149 3149 3149 3150 3151 3152 3153 3154 3156 3157 3159 3161 3162 3163 3165 3166 3167 3167 3169 3170
3133 3133 3135 3136 3136 3135 3134 3136 3138 3139 3140 3141 3141 3141 3141 3139 3140 3143 3144 3143 3141 3144 3145 3146 3147 3149 3148 3146 3146 3145 3145 3146 3146 3146 3147 3147 3147 3147 3148 3148 3148 3149 3149 3149 3149 3150 3150 3151 3152 3153 3154 3155 3157 3159 3160 3162 3163 3165 3166 3166 3168 3169
3134 3132 3132 3134 3137 3136 3134 3135 3136 3137 3139 3140 3141 3141 3140 3139 3142 3143 3143 3142 3142 3143 3143 3143 3145 3147 3148 3147 3146 3145 3146 3146 3145 3145 3146 3146 3146 3147 3147 3147 3147 3148 3149 3149 3149 3149 3150 3150 3151 3151 3152 3153 3155 3157 3159 3160 3162 3163 3164 3165 3166 3167
3135 3133 3130 3129 3133 3135 3135 3136 3135 3135 3138 3140 3140 3140 3138 3139 3143 3143 3141 3141 3141 3141 3141 3141 3142 3143 3144 3145 3144 3143 3145 3145 3144 3144 3145 3144 3144 3146 3147 3148 3148 3148 3148 3148 3148 3149 3149 3149 3150 3150 3150 3151 3153 3156 3157 3159 3160 3162 3163 3164 3165 3166
3135 3134 3132 3130 3129 3131 3132 3134 3133 3133 3135 3135 3135 3136 3135 3137 3141 3140 3139 3140 3139 3139 3139 3140 3141 3140 3140 3142 3141 3140 3142 3142 3141 3142 3144 3144 3144 3145 3146 3148 3149 3148 3148 3148 3148 3148 3148 3148 3148 3148 3149 3150 3151 3153 3155 3157 3159 3160 3162 3163 3163 3164
3135 3134 3134 3133 3131 3130 3130 3131 3131 3130 3130 3131 3131 3131 3131 3133 3138 3138 3137 3138 3138 3138 3138 3138 3139 3139 3140 3141 3140 3139 3139 3138 3137 3138 3140 3142 3143 3144 3145 3145 3146 3146 3146 3146 3146 3147 3147 3147 3148 3148 3148 3149 3150 3151 3153 3155 3157 3159 3160 3161 3162 3162
3134 3134 3133 3133 3132 3132 3131 3130 3130 3130 3129 3130 3130 3130 3129 3131 3135 3136 3136 3136 3136 3136 3136 3136 3137 3138 3139 3139 3139 3137 3137 3136 3136 3137 3138 3139 3140 3142 3142 3143 3144 3144 3144 3144 3145 3146 3146 3146 3147 3147 3147 3148 3148 3149 3151 3154 3156 3157 3158 3160 3160 3161
3133 3133 3132 3132 3131 3131 3131 3130 3130 3130 3130 3130 3131 3130 3130 3131 3133 3134 3134 3134 3135 3134 3134 3134 3136 3137 3137 3137 3137 3135 3135 3135 3135 3136 3137 3138 3138 3139 3140 3141 3142 3142 3142 3142 3143 3144 3144 3145 3145 3145 3146 3147 3147 3148 3149 3152 3154 3155 3157 3158 3159 3159
3133 3132 3132 3131 3131 3130 3130 3129 3129 3129 3129 3129 3130 3130 3130 3130 3131 3131 3132 3132 3133 3133 3133 3133 3135 3136 3136 3136 3135 3134 3133 3134 3134 3135 3136 3136 3137 3138 3139 3140 3140 3141 3141 3141 3141 3141 3142 3143 3144 3144 3145 3145 3146 3147 3148 3150 3151 3153 3155 3156 3158 3158
3132 3131 3131 3130 3130 3129 3129 3128 3128 3128 3128 3128 3129 3129 3128 3128 3129 3129 3129 3130 3131 3131 3131 3132 3133 3133 3134 3134 3133 3132 3131 3131 3133 3133 3134 3134 3135 3137 3138 3139 3139 3140 3140 3140 3140 3140 3140 3142 3142 3143 3143 3144 3145 3146 3147 3148 3149 3151 3153 3154 3156 3157
3131 3130 3130 3129 3128 3128 3127 3127 3127 3127 3127 3127 3127 3127 3127 3127 3127 3128 3128 3128 3129 3129 3129 3130 3130 3131 3131 3131 3130 3130 3130 3130 3132 3132 3132 3132 3134 3136 3139 3139 3139 3139 3138 3139 3139 3139 3139 3140 3141 3141 3142 3142 3143 3144 3145 3147 3148 3149 3150 3152 3154 3155
3130 3129 3129 3128 3127 3127 3126 3126 3126 3126 3126 3126 3126 3126 3126 3126 3126 3127 3127 3127 3127 3127 3127 3128 3128 3128 3129 3129 3129 3129 3129 3129 3129 3130 3131 3132 3133 3135 3138 3139 3138 3138 3138 3138 3138 3137 3138 3138 3139 3139 3139 3140 3141 3142 3143 3144 3145 3146 3148 3149 3151 3153
3129 3128 3128 3127 3127 3126 3126 3125 3125 3125 3124 3124 3124 3124 3124 3124 3125 3125 3125 3126 3125 3126 3126 3127 3127 3127 3127 3128 3128 3127 3127 3127 3127 3128 3131 3132 3132 3133 3135 3137 3138 3138 3138 3138 3137 3136 3136 3136 3137 3137 3137 3138 3138 3139 3140 3142 3143 3144 3146 3147 3148 3150
3128 3128 3127 3127 3126 3126 3125 3124 3124 3124 3123 3123 3123 3123 3122 3122 3123 3124 3124 3124 3124 3124 3125 3126 3126 3126 3126 3126 3126 3126 3126 3126 3126 3127 3130 3131 3131 3131 3132 3134 3136 3137 3137 3137 3136 3135 3135 3134 3135 3135 3135 3136 3136 3136 3136 3138 3139 3141 3142 3144 3146 3147
3127 3127 3126 3126 3126 3125 3124 3124 3123 3123 3122 3122 3121 3121 3122 3121 3122 3122 3123 3123 3123 3123 3124 3125 3125 3125 3124 3125 3125 3125 3125 3125 3125 3125 3127 3130 3131 3130 3131 3132 3133 3135 3135 3135 3135 3134 3134 3133 3132 3132 3133 3134 3134 3135 3135 3135 3136 3138 3139 3140 3143 3145
3126 3126 3126 3125 3125 3124 3124 3123 3122 3122 3121 3121 3121 3121 3121 3121 3121 3121 3122 3122 3122 3122 3123 3123 3123 3123 3123 3123 3123 3123 3123 3124 3124 3124 3125 3127 3129 3129 3130 3131 3131 3132 3132 3133 3133 3133 3133 3133 3132 3132 3132 3133 3134 3135 3135 3135 3136 3138 3137 3138 3140 3143
3125 3125 3125 3125 3124 3124 3123 3123 3122 3122 3121 3121 3120 3120 3120 3120 3120 3121 3121 3121 3121 3121 3121 3122 3122 3122 3122 3121 3122 3122 3122 3122 3123 3123 3123 3124 3125 3126 3128 3129 3129 3129 3130 3131 3132 3132 3133 3133 3132 3132 3132 3132 3133 3134 3135 3135 3136 3137 3137 3137 3139 3141
3125 3124 3124 3124 3124 3124 3123 3123 3122 3122 3121 3121 3120 3120 3120 3120 3120 3120 3120 3121 3121 3120 3120 3120 3120 3120 3120 3121 3121 3121 3121 3121 3121 3122 3122 3122 3123 3124 3125 3127 3127 3127 3128 3129 3130 3131 3131 3131 3131 3131 3132 3132 3133 3133 3134 3135 3135 3136 3136 3136 3137 3138
3124 3124 3124 3124 3124 3123 3123 3123 3122 3122 3121 3121 3121 3120 3120 3120 3120 3120 3120 3120 3120 3120 3120 3120 3119 3119 3120 3120 3120 3120 3120 3120 3120 3120 3121 3121 3122 3122 3123 3124 3125 3125 3125 3126 3128 3128 3129 3129 3129 3130 3131 3132 3132 3132 3133 3134 3134 3135 3135 3135 3136 3136
3123 3123 3123 3123 3123 3123 3122 3122 3122 3122 3121 3121 3121 3120 3120 3120 3120 3120 3120 3120 3120 3120 3120 3119 3119 3119 3119 3119 3119 3119 3119 3119 3119 3119 3119 3120 3120 3121 3122 3123 3123 3123 3123 3124 3126 3126 3127 3127 3128 3128 3129 3130 3131 3131 3132 3133 3133 3133 3134 3134 3134 3135
3122 3123 3123 3123 3123 3122 3122 3122 3122 3122 3121 3121 3121 3120 3120 3120 3120 3120 3120 3120 3120 3120 3119 3119 3119 3119 3119 3119 3118 3118 3118 3118 3118 3118 3118 3119 3119 3119 3120 3121 3121 3122 3122 3123 3124 3124 3125 3125 3126 3126 3128 3129 3129 3129 3130 3131 3131 3132 3132 3131 3132 3133
3121 3122 3122 3122 3122 3122 3121 3121 3121 3122 3121 3121 3121 3120 3120 3120 3120 3120 3120 3120 3120 3119 3119 3119 3119 3119 3118 3118 3118 3118 3118 3118 3117 3117 3118 3118 3118 3118 3119 3119 3120 3120 3121 3121 3122 3123 3123 3124 3124 3125 3126 3127 3127 3127 3128 3129 3129 3130 3130 3130 3130 3132
3120 3121 3121 3121 3121 3121 3121 3121 3121 3121 3121 3121 3121 3120 3120 3120 3120 3120 3120 3120 3119 3119 3119 3119 3118 3118 3118 3118 3118 3118 3118 3117 3117 3117 3117 3117 3117 3118 3118 3118 3119 3119 3120 3120 3121 3122 3122 3122 3123 3123 3124 3125 3125 3126 3126 3127 3128 3128 3129 3129 3129 3130
3119 3120 3120 3120 3120 3120 3120 3120 3120 3121 3121 3121 3121 3121 3120 3120 3120 3120 3120 3119 3119 3119 3118 3118 3118 3118 3118 3117 3117 3117 3117 3117 3117 3117 3117 3117 3117 3117 3118 3118 3118 3119 3119 3119 3120 3120 3121 3121 3121 3122 3123 3123 3123 3124 3124 3125 3126 3126 3127 3128 3129 3130
3117 3118 3119 3119 3119 3120 3120 3120 3120 3120 3120 3120 3120 3120 3120 3120 3120 3120 3120 3119 3119 3119 3118 3118 3117 3117 3117 3117 3117 3117 3117 3117 3117 3117 3117 3117 3117 3117 3117 3118 3118 3118 3119 3119 3119 3119 3120 3120 3120 3121 3121 3121 3122 3122 3123 3123 3123 3124 3126 3126 3127 3128
3116 3117 3118 3118 3118 3119 3119 3119 3119 3119 3120 3120 3120 3120 3120 3120 3120 3120 3120 3119 3119 3119 3118 3118 3117 3117 3117 3117 3117 3117 3117 3117 3117 3117 3117 3117 3117 3117 3118 3118 3118 3118 3118 3118 3119 3119 3119 3120 3120 3120 3121 3121 3121 3121 3121 3121 3121 3122 3123 3124 3125 3125
3115 3115 3116 3117 3117 3118 3118 3119 3119 3119 3119 3119 3119 3119 3119 3120 3120 3120 3120 3119 3119 3119 3119 3118 3118 3118 3117 3117 3117 3117 3117 3117 3117 3117 3117 3117 3117 3117 3117 3118 3118 3118 3118 3118 3118 3118 3119 3119 3119 3120 3120 3120 3120 3120 3120 3120 3121 3121 3122 3122 3123 3123
3113 3114 3115 3115 3116 3116 3117 3118 3118 3118 3118 3118 3119 3119 3119 3119 3119 3119 3120 3119 3119 3119 3119 3119 3118 3118 3118 3117 3117 3117 3117 3117 3117 3117 3117 3117 3117 3117 3117 3117 3117 3117 3118 3118 3118 3118 3118 3118 3118 3118 3119 3119 3119 3119 3120 3120 3120 3120 3121 3121 3122 3122
3111 3112 3113 3114 3114 3115 3115 3116 3117 3117 3118 3118 3118 3118 3118 3119 3119 3119 3119 3119 3119 3119 3119 3119 3118 3118 3118 3118 3117 3117 3117 3117 3117 3117 3117 3117 3117 3117 3117 3117 3117 3117 3117 3117 3117 3117 3117 3117 3117 3117 3118 3118 3118 3119 3119 3119 3119 3120 3120 3120 3121 3121
3109 3110 3111 3112 3113 3113 3114 3115 3115 3116 3117 3117 3117 3117 3117 3118 3118 3118 3118 3118 3118 3118 3119 3119 3118 3118 3118 3118 3117 3117 3117 3117 3117 3117 3117 3117 3117 3117 3117 3116 3116 3116 3117 3117 3117 3116 3116 3116 3116 3117 3117 3117 3117 3117 3118 3118 3118 3119 3119 3119 3120 3120
3106 3108 3109 3110 3111 3111 3112 3113 3114 3115 3115 3116 3116 3116 3116 3117 3117 3117 3117 3117 3117 3117 3118 3118 3118 3118 3118 3118 3118 3117 3117 3117 3117 3117 3116 3116 3116 3116 3116 3116 3116 3116 3116 3116 3116 3116 3116 3116 3116 3116 3116 3116 3116 3116 3117 3117 3117 3117 3118 3118 3119 3119
3103 3105 3107 3108 3109 3110 3110 3111 3112 3113 3114 3114 3115 3115 3115 3115 3115 3116 3116 3116 3116 3116 3116 3117 3117 3117 3118 3118 3118 3117 3117 3117 3117 3116 3116 3116 3116 3116 3115 3115 3115 3115 3115 3116 3116 3116 3116 3116 3116 3116 3116 3116 3116 3116 3116 3116 3116 3116 3117 3117 3117 3117